Location: Avon School (historical)
(37.7514°N, 90.2201°W)
Time: 03:23:50
(UTC+00:00)

Vanguard 2 Rocket - Pass Details

Date: 17 November 2024
Orbit: 554 x 3296 km, 32.9° (Epoch: 03 December)

Event Time Altitude Azimuth Distance (km) Brightness Sun altitude
Exits shadow 09:20:22 - 178° (S) 3,973 10.1 -40.1°
Reaches altitude 10° 09:21:56 10° 170° (S) 3,791 10.1 -39.8°
Maximum altitude 09:28:33 19° 130° (SE) 3,821 10.4 -38.5°
Drops below altitude 10° 09:37:24 10° 93° (E) 5,304 11.5 -36.7°
Sets 09:44:11 0° 79° (E) 6,784 12.3 -35.4°
